Regional Weather Roundup
Issued by NWS

Home | Current Version | Previous Version | Text Only | Print | Product List | Glossary Off
Versions: 1 2 3 4 5 6 7 8 9 10 11 12 13 14 15 16 17 18 19 20 21 22 23 24 25 26 27 28 29 30 31 32 33 34 35 36 37 38 39 40 41 42 43 44 45 46 47 48 49 50

000
ASUS45 KTFX 310519
RWRMT
MONTANA REGIONAL WEATHER ROUNDUP
NATIONAL WEATHER SERVICE GREAT FALLS MT
1100 PM MDT SUN AUG 30 2015

NOTE: "FAIR" INDICATES FEW OR NO CLOUDS BELOW 12000 FEET WITH NO
SIGNIFICANT WEATHER AND/OR OBSTRUCTIONS TO VISIBILITY.

MTZ001>007-043-310600-
WEST OF THE DIVIDE

CITY           SKY/WX    TMP DP  RH WIND       PRES   REMARKS
KALISPELL      MOCLDY    51  44  77 S7        29.98R
MISSOULA       CLOUDY    49  45  86 CALM      30.07S
BUTTE          PTCLDY    52  37  56 N10       30.08R
MULLAN PASS    CLOUDY    42  39  89 SW15G29   30.06S
DEER LODGE       N/A     48  39  71 N7        30.10R
EUREKA           N/A     52  45  76 SE5       29.96S
HAMILTON         N/A     50  45  81 N1        30.07S
LIBBY            N/A     48  48 100 CALM      29.98R
PLAINS           N/A     58  41  53 CALM      30.01S
RONAN            N/A     53  43  69 SE10      30.07R
THOMPSON FALLS   N/A     55  47  74 S2        30.05
$$

MTZ008-052>055-310600-
SOUTHWEST MONTANA

CITY           SKY/WX    TMP DP  RH WIND       PRES   REMARKS
BOZEMAN        CLOUDY    57  39  51 N20G29    30.01R
DILLON         CLEAR     53  34  48 SE9       30.03R
W YELLOWSTONE  CLEAR     55  23  28 SW8       30.09R
THREE FORKS      N/A     59  26  28 N9        30.02R
TWIN BRIDGES     N/A     61  32  33 N5        30.02R
$$

MTZ009-010-012-014-046-048-049-054-310600-
EAST SLOPES AND CENTRAL MONTANA

CITY           SKY/WX    TMP DP  RH WIND       PRES   REMARKS
CUT BANK       MOCLDY    50  38  63 W17       29.85S
GREAT FALLS    CLOUDY    58  35  42 W18G26    29.91R
MALMSTROM AFB  CLOUDY    59  37  44 SW15G23   29.92S
HELENA         MOCLDY    56  39  53 W9        30.02R
CONRAD           N/A     55  36  49 SW8       29.91R
$$

MTZ011-013-016-021-045-047-050-051-310600-
NORTH CENTRAL MONTANA

CITY           SKY/WX    TMP DP  RH WIND       PRES   REMARKS
HAVRE          CLOUDY    62  39  42 MISG      29.81F
LEWISTOWN      LGT RAIN  56  46  69 N6        29.94R
N BAR RANCH    LGT RAIN  52  48  87 W12       29.94S
CHINOOK          N/A     61  46  59 SW5       29.79F
FORT BENTON      N/A     63  36  36 SW20G25   29.88R
$$

MTZ017>020-022>027-061-062-310600-
NORTHEAST MONTANA

CITY           SKY/WX    TMP DP  RH WIND       PRES   REMARKS
GLASGOW        MOCLDY    62  58  86 W12       29.77R
JORDAN           N/A     64  54  69 W7        29.78R
SIDNEY         CLOUDY    66  54  63 NE3       29.66F
WOLF POINT     MOCLDY    66  55  67 N15       29.71F
MALTA            N/A     64  49  58 W6        29.79R
PLENTYWOOD       N/A     66  52  59 SW8       29.73R
POPLAR           N/A     64  55  72 N5        29.73F
SCOBEY           N/A     65  49  56 W12       29.75R
$$

MTZ028>42-056>058-310600-
SOUTHCENTRAL AND SOUTHEAST MONTANA

CITY           SKY/WX    TMP DP  RH WIND       PRES   REMARKS
BAKER          CLOUDY    72  53  51 NW7       29.79R THUNDER
BILLINGS       PTCLDY    66  45  46 NW15      29.83R
LIVINGSTON     PTCLDY    66  36  32 NW9       29.94R
MILES CITY     MOCLDY    69  57  65 N7        29.70F
FORSYTH          N/A     70  52  52 CALM      29.72R
LAUREL           N/A     71  44  37 W20       29.84R
ROUNDUP          N/A     65  38  36 NW23      29.78S
$$

REGIONAL REPORTS...DAKOTAS

CITY           SKY/WX    TMP DP  RH WIND       PRES   REMARKS
WILLISTON      CLOUDY    67  49  52 NW6       29.72F
MINOT          CLOUDY    67  50  54 NW5       29.65F
DICKINSON      CLOUDY    68  51  54 N9        29.71R
BEACH            N/A     64  59  82 E5        29.74F
CROSBY           N/A     64  50  59 SW8       29.75R
BISMARCK       CLOUDY    71  59  65 CALM      29.64F
GRAND FORKS    PTCLDY    73  68  84 S15       29.66S
FARGO          CLEAR     73  65  75 S17G24    29.71F
BUFFALO SD       N/A     69  54  58 NE8       29.66F
RAPID CITY     PTCLDY    71  57  61 NW10      29.75F
$$

REGIONAL REPORTS...WYOMING/IDAHO/WASHINGTON

CITY           SKY/WX    TMP DP  RH WIND       PRES   REMARKS
GILLETTE       CLOUDY    69  51  52 S7        29.83R
SHERIDAN       CLOUDY    72  51  47 NW10      29.82R
BUFFALO WY     CLOUDY    76  41  28 W14       29.90R
CODY           PTCLDY    70  34  26 SW12G17   29.92R
YELLOWSTONE LA   N/A     44  31  60 W5        30.17S
IDAHO FALLS    CLEAR     64  29  26 S12       30.03R
SALMON         PTCLDY    59  36  41 CALM      30.02R
BOISE          CLEAR     67  42  40 NW12      29.98R
SPOKANE        PTCLDY    58  40  51 S12       29.96S
$$

REGIONAL REPORTS...ALBERTA

CITY           SKY/WX    TMP DP  RH WIND       PRES   REMARKS
EDMONTON       CLEAR     48  39  71 SE2       29.50S
CALGARY        CLEAR     55  30  38 W9        29.66R
LETHBRIDGE     CLEAR     50  37  62 SW10G18   29.76F
MEDICINE HAT   CLEAR     61  36  39 SW24G33   29.69S
WATERTON GATE    N/A     50  37  62 SW22G38     N/A
CARDSTON         N/A     54  34  47 W14G24      N/A
MILK RIVER       N/A     52  37  58 W24G31      N/A
ONEFOUR          N/A     59  36  41 SW9         N/A
$$

REGIONAL REPORTS...SASKATCHEWAN

CITY           SKY/WX    TMP DP  RH WIND       PRES   REMARKS
SWIFT CURRENT  CLOUDY    66  45  45 SW25G37   29.72R
REGINA         MOCLDY    64  55  72 S9        29.66R
SASKATOON      PTCLDY    59  43  55 S9        29.56S
CYPRESS HILLS    N/A     55  32  41 W12G18      N/A
VAL MARIE        N/A     61  50  67 SW9G20      N/A
ROCKGLEN         N/A     59  54  82 SW9         N/A
ASSINIBOIA       N/A     55  52  88 N5          N/A
$$


USA.gov is the U.S. government's official web portal to all federal, state and local government web resources and services.